Powrót do katalogu

STARLINK-31999

AktywnyŁącznośćVLEO
NORAD 60101·PAYLOAD·🇺🇸 United States

Wystrzelony Jun 23, 2024 z Cape Canaveral Space Force Station

Loading…

Następne Przeloty (najbliższe 24 godziny)

TLE

ŚwieżeSource: CelesTrak SupGP

Epoka: Sep 15, 2026, 03:29 UTC

1 60101C 24117L   26258.14562500 -.00051461  00000+0 -15204-2 0  2589
2 60101  53.1577 234.8956 0001410  87.2302 302.4849 15.34417466    15

Śledź STARLINK-31999 w czasie rzeczywistym z AllMySat

Download on the App Store